Weather reports worldwide

Advertisment
Twenthe, Netherlands (6290): temperature & dewpoint: 11.10.2019 23:00:00 - 17.10.2019 23:00:00 (CEST)Twenthe, Netherlands (6290): temperature 5cm: 11.10.2019 23:00:00 - 17.10.2019 23:00:00 (CEST)Twenthe, Netherlands (6290): wind speed & gusts: 11.10.2019 23:00:00 - 17.10.2019 23:00:00 (CEST)Twenthe, Netherlands (6290): wind direction: 11.10.2019 23:00:00 - 17.10.2019 23:00:00 (CEST)Twenthe, Netherlands (6290): reduced air pressure: 11.10.2019 23:00:00 - 17.10.2019 23:00:00 (CEST)Twenthe, Netherlands (6290): visibility: 11.10.2019 23:00:00 - 17.10.2019 23:00:00 (CEST)Twenthe, Netherlands (6290): precipitation: 11.10.2019 23:00:00 - 17.10.2019 23:00:00 (CEST)
Date & Time tt [°C] td [°C] tt 5cm [°C] ff [km/h] ff [kn] fx [km/h] fx [kn] dd ppp [hPa] vv [km] rr [mm]
17.10.2019 23:00:00 12,4 12,0 11,4 11 6 18 10 SSW 1009,2 16 0,0
17.10.2019 22:00:00 12,8 12,5 12,6 7 4 14 8 SSE 1008,9 14 0,8
17.10.2019 21:00:00 12,9 12,5 12,8 11 6 14 8 S 1009,2 7 0,8
17.10.2019 20:00:00 12,8 12,5 12,7 7 4 18 10 SSE 1009,4 4,3 0,7
17.10.2019 19:00:00 12,9 12,3 12,7 11 6 22 12 S 1009,6 6 0,5
17.10.2019 18:00:00 13,5 12,2 13,3 11 6 25 14 S 1009,7 23 0,0
17.10.2019 17:00:00 15,3 11,8 15,1 11 6 22 12 S 1009,8 35 0,0
17.10.2019 16:00:00 15,5 11,4 15,8 14 8 22 12 SSW 1010,1 38 0,0
17.10.2019 15:00:00 15,4 13,0 15,9 11 6 14 8 SSE 1010,2 23 0,0
17.10.2019 14:00:00 14,5 12,7 15,3 7 4 14 8 S 1010,5 18 0,0
17.10.2019 13:00:00 14,3 12,2 15,2 11 6 14 8 SSW 1010,6 32 0,0
17.10.2019 12:00:00 13,8 12,0 14,5 4 2 7 4 SSW 1010,4 30 0,0
17.10.2019 11:00:00 12,9 11,9 13,2 4 2 22 12 W 1010,1 25 0,0
17.10.2019 10:00:00 12,7 12,2 12,7 11 6 25 14 W 1009,6 17 0,3
17.10.2019 09:00:00 13,8 13,4 13,6 14 8 25 14 SSW 1008,6 7 0,0
17.10.2019 08:00:00 13,7 13,2 13,5 18 10 29 16 SSW 1007,6 6 0,0
17.10.2019 07:00:00 13,7 13,2 13,4 22 12 32 18 SSW 1007,0 10 0,1
17.10.2019 06:00:00 13,4 13,1 13,3 18 10 25 14 SSW 1006,9 3,6 0,3
17.10.2019 05:00:00 13,4 13,0 13,3 18 10 32 18 SSW 1006,8 3,9 0,2
17.10.2019 04:00:00 13,4 13,0 13,2 18 10 32 18 S 1006,9 3,4 0,4
17.10.2019 03:00:00 13,3 12,9 13,2 18 10 32 18 S 1007,0 4,0 0,4
17.10.2019 02:00:00 13,4 12,9 13,2 18 10 32 18 S 1007,0 6 0,4
17.10.2019 01:00:00 13,6 12,8 13,4 22 12 32 18 S 1007,1 14 0,6
17.10.2019 00:00:00 13,7 13,1 13,4 18 10 29 16 S 1007,1 20 1,7
16.10.2019 23:00:00 13,6 13,1 13,4 18 10 29 16 S 1007,3 10 1,6
16.10.2019 22:00:00 13,5 13,0 13,4 18 10 29 16 S 1007,3 10 1,1
16.10.2019 21:00:00 13,6 13,0 13,4 18 10 32 18 S 1007,1 9 0,8
16.10.2019 20:00:00 13,6 13,1 13,4 18 10 29 16 S 1007,3 23 0,0
16.10.2019 19:00:00 13,4 13,0 13,2 18 10 29 16 S 1007,2 3,7 0,2
16.10.2019 18:00:00 13,2 12,8 13,1 14 8 25 14 S 1007,2 3,9 0,6
16.10.2019 17:00:00 13,3 12,8 13,3 14 8 36 19 S 1007,4 5 0,2
16.10.2019 16:00:00 14,3 11,4 14,2 18 10 32 18 S 1007,6 46 0,0
16.10.2019 15:00:00 14,2 11,6 14,1 22 12 36 19 S 1007,7 46 0,0
16.10.2019 14:00:00 14,9 10,7 15,0 22 12 36 19 SSW 1008,1 42 0,0
16.10.2019 13:00:00 15,1 11,4 14,8 18 10 29 16 S 1008,7 34 0,0
16.10.2019 12:00:00 14,5 11,0 15,5 22 12 29 16 S 1008,8 29 0,0
16.10.2019 11:00:00 12,9 10,9 13,2 18 10 29 16 SSW 1009,2 23 0,0
16.10.2019 10:00:00 11,9 10,8 11,9 14 8 22 12 SSW 1009,3 18 0,0
16.10.2019 09:00:00 11,6 10,6 11,4 11 6 25 14 SSW 1009,0 15 0,0
16.10.2019 08:00:00 11,6 10,7 11,4 14 8 22 12 SSW 1008,6 13 0,0
16.10.2019 07:00:00 12,0 11,3 11,8 14 8 25 14 SSW 1008,5 11 0,0
16.10.2019 06:00:00 12,3 11,7 12,0 14 8 22 12 SSW 1008,4 8 0,1
16.10.2019 05:00:00 12,3 11,8 12,1 11 6 22 12 SSW 1008,2 5 0,4
16.10.2019 04:00:00 12,6 12,1 12,3 11 6 29 16 SW 1008,5 5 0,7
16.10.2019 03:00:00 13,2 12,6 13,0 11 6 22 12 SW 1008,1 6 0,0
16.10.2019 02:00:00 13,5 12,9 13,3 14 8 22 12 SW 1007,9 4,0 0,0
16.10.2019 01:00:00 13,1 12,9 12,8 11 6 14 8 SSW 1007,8 3,5 0,3
16.10.2019 00:00:00 13,0 12,9 12,8 7 4 14 8 SW 1007,7 6 1,2
15.10.2019 23:00:00 13,3 12,9 13,2 14 8 25 14 SW 1007,8 6 0,9
15.10.2019 22:00:00 13,9 13,5 13,7 11 6 18 10 SSW 1007,5 4,2 1,3
15.10.2019 21:00:00 14,0 13,5 13,8 7 4 18 10 SW 1007,0 6 1,1
15.10.2019 20:00:00 14,3 13,9 13,9 4 2 7 4 SW 1006,7 7 0,8
15.10.2019 19:00:00 14,0 13,9 13,6 4 2 11 6 S 1006,3 10 0,4
15.10.2019 18:00:00 14,9 13,3 14,4 7 4 14 8 SSW 1006,0 34 0,1
15.10.2019 17:00:00 16,2 12,7 15,7 11 6 14 8 SSW 1005,9 45 0,0
15.10.2019 16:00:00 17,1 13,4 16,7 7 4 22 12 SW 1006,0 44 0,0
15.10.2019 15:00:00 17,5 13,3 17,5 14 8 22 12 SW 1006,2 47 0,0
15.10.2019 14:00:00 17,4 12,9 17,6 14 8 25 14 WSW 1006,1 49 0,0
15.10.2019 13:00:00 17,9 13,1 - 14 8 22 12 SW 1006,1 43 0,0
15.10.2019 12:00:00 17,7 13,1 18,2 18 10 25 14 WSW 1006,4 39 0,0
15.10.2019 11:00:00 17,0 13,5 17,5 14 8 22 12 SSW 1006,4 30 0,0
15.10.2019 10:00:00 15,3 13,2 14,9 11 6 18 10 S 1006,1 23 0,0
15.10.2019 09:00:00 14,4 13,1 12,7 7 4 11 6 SSE 1005,3 19 0,0
15.10.2019 08:00:00 14,1 12,4 12,4 7 4 14 8 SSW 1004,9 24 0,0
15.10.2019 07:00:00 15,5 12,9 14,3 14 8 22 12 SSW 1004,7 32 0,0
15.10.2019 06:00:00 16,1 12,8 14,5 14 8 22 12 S 1004,6 37 0,0
15.10.2019 05:00:00 15,5 12,7 13,5 14 8 22 12 S 1005,1 37 0,0
15.10.2019 04:00:00 16,2 12,8 13,9 14 8 18 10 S 1005,2 41 0,0
15.10.2019 03:00:00 15,4 12,8 13,7 11 6 14 8 SSE 1005,4 33 0,0
15.10.2019 02:00:00 15,5 13,5 14,1 11 6 18 10 SE 1005,5 21 0,0
15.10.2019 01:00:00 16,7 14,0 15,7 11 6 22 12 SE 1005,8 28 0,0
15.10.2019 00:00:00 17,2 14,4 16,1 11 6 18 10 SSE 1006,4 28 0,0
14.10.2019 23:00:00 15,7 14,6 14,8 7 4 18 10 SE 1006,7 12 0,0
14.10.2019 22:00:00 16,0 14,6 15,2 11 6 18 10 SE 1007,3 14 0,0
14.10.2019 21:00:00 15,9 14,5 14,8 7 4 18 10 E 1007,7 15 0,0
14.10.2019 20:00:00 16,3 14,6 15,2 7 4 18 10 E 1007,9 19 0,0
14.10.2019 19:00:00 17,0 14,7 16,0 11 6 22 12 E 1007,9 24 0,0
14.10.2019 18:00:00 17,8 14,8 17,2 11 6 22 12 E 1008,5 32 0,0
14.10.2019 17:00:00 18,9 15,1 19,0 7 4 14 8 E 1009,3 36 0,0
14.10.2019 16:00:00 18,5 14,1 18,6 11 6 25 14 E 1009,9 31 0,0
14.10.2019 15:00:00 18,8 13,9 18,4 14 8 22 12 E 1010,8 29 0,0
14.10.2019 14:00:00 17,3 13,6 17,6 7 4 22 12 ENE 1011,8 31 0,4
14.10.2019 13:00:00 17,5 13,0 17,7 14 8 22 12 E 1012,5 23 0,0
14.10.2019 12:00:00 16,3 12,4 17,1 11 6 22 12 E 1013,3 24 0,0
14.10.2019 11:00:00 15,9 12,4 16,5 4 2 11 6 ENE 1014,1 21 0,0
14.10.2019 10:00:00 15,0 12,9 15,5 7 4 7 4 SSE 1014,1 14 0,0
14.10.2019 09:00:00 11,8 11,8 10,3 4 2 7 4 E 1014,2 4,4 0,0
14.10.2019 08:00:00 11,2 11,2 8,4 0 0 11 6 N 1013,7 1,7 0,0
14.10.2019 07:00:00 12,0 11,8 10,8 7 4 14 8 S 1013,3 8 0,0
14.10.2019 06:00:00 12,4 11,9 11,3 7 4 14 8 S 1013,3 9 0,0
14.10.2019 05:00:00 13,8 12,5 13,2 11 6 18 10 SW 1013,1 17 0,0
14.10.2019 04:00:00 13,6 12,4 12,6 11 6 25 14 SW 1012,8 21 0,0
14.10.2019 03:00:00 14,2 12,4 13,4 18 10 29 16 SW 1012,2 34 0,0
14.10.2019 02:00:00 15,0 12,7 14,5 18 10 29 16 WSW 1011,6 40 0,0
14.10.2019 01:00:00 15,2 12,6 14,5 18 10 40 21 WSW 1011,2 50 0,0
14.10.2019 00:00:00 16,2 12,5 15,6 29 16 40 21 WSW 1010,3 44 0,0
13.10.2019 23:00:00 16,8 14,7 16,3 25 14 40 21 WSW 1009,5 48 0,0
13.10.2019 22:00:00 17,1 15,9 16,7 18 10 50 27 WSW 1008,6 35 0,5
13.10.2019 21:00:00 21,6 14,8 20,6 22 12 36 19 SSW 1006,5 49 0,0
13.10.2019 20:00:00 21,6 14,8 20,4 22 12 40 21 SSW 1006,1 48 0,0
13.10.2019 19:00:00 21,4 15,2 19,9 18 10 29 16 SSW 1006,0 49 0,0
13.10.2019 18:00:00 21,3 16,1 19,8 14 8 25 14 S 1006,0 42 0,0
13.10.2019 17:00:00 21,6 15,9 20,8 18 10 32 18 S 1005,6 44 0,0
13.10.2019 16:00:00 21,4 15,8 21,0 18 10 40 21 S 1005,5 42 0,0
13.10.2019 15:00:00 22,1 15,6 22,4 25 14 40 21 S 1006,1 41 0,0
13.10.2019 14:00:00 21,6 16,3 22,1 25 14 43 23 S 1006,9 29 0,0
13.10.2019 13:00:00 20,7 16,7 21,0 22 12 29 16 S 1007,6 27 0,0
13.10.2019 12:00:00 18,6 16,8 17,7 18 10 29 16 SSE 1007,9 23 0,2
13.10.2019 11:00:00 18,0 16,0 17,5 14 8 25 14 S 1008,3 31 0,1
13.10.2019 10:00:00 17,0 15,6 16,4 14 8 22 12 S 1008,4 18 0,0
13.10.2019 09:00:00 15,6 14,7 14,9 11 6 18 10 SSE 1008,3 13 0,0
13.10.2019 08:00:00 14,8 14,2 14,1 11 6 14 8 SSE 1008,5 12 0,0
13.10.2019 07:00:00 14,6 13,8 13,9 14 8 18 10 S 1008,3 14 0,0
13.10.2019 06:00:00 14,3 13,6 13,6 11 6 18 10 S 1008,6 14 0,0
13.10.2019 05:00:00 13,5 13,0 12,7 14 8 14 8 SSE 1008,8 10 0,0
13.10.2019 04:00:00 11,5 11,5 11,1 7 4 7 4 SE 1009,0 6 0,0
13.10.2019 03:00:00 9,1 9,1 7,8 4 2 7 4 ENE 1009,5 0,7 0,0
13.10.2019 02:00:00 9,5 9,4 8,3 4 2 7 4 E 1010,1 0,3 0,0
13.10.2019 01:00:00 10,5 10,4 8,9 4 2 4 2 E 1010,3 2,8 0,0
13.10.2019 00:00:00 11,0 10,9 10,7 4 2 11 6 SE 1010,6 7 0,0
12.10.2019 23:00:00 11,0 10,6 10,8 4 2 11 6 ESE 1010,4 11 0,0
12.10.2019 22:00:00 11,0 10,7 11,0 7 4 7 4 E 1010,3 9 0,0
12.10.2019 21:00:00 10,6 10,3 10,3 4 2 7 4 NNE 1010,1 12 0,0
12.10.2019 20:00:00 11,0 10,6 10,9 4 2 18 10 NE 1010,4 27 0,0
12.10.2019 19:00:00 11,2 10,6 11,1 7 4 14 8 N 1010,2 24 0,0
12.10.2019 18:00:00 11,4 10,9 11,4 7 4 11 6 NNE 1010,1 28 0,0
12.10.2019 17:00:00 11,6 11,3 11,7 7 4 14 8 NNW 1010,4 19 0,4
12.10.2019 16:00:00 12,2 11,9 12,3 11 6 22 12 NNW 1010,5 5 0,6
12.10.2019 15:00:00 13,8 13,6 14,0 11 6 18 10 W 1010,2 2,4 0,6
12.10.2019 14:00:00 13,7 13,5 14,0 7 4 14 8 WSW 1009,8 2,1 0,3
12.10.2019 13:00:00 13,8 12,8 14,0 7 4 14 8 W 1009,6 11 0,0
12.10.2019 12:00:00 14,0 12,8 14,1 11 6 25 14 W 1009,2 11 0,0
12.10.2019 11:00:00 14,1 12,5 14,0 11 6 25 14 W 1008,8 35 0,0
12.10.2019 10:00:00 14,5 11,9 14,3 18 10 29 16 WSW 1008,0 49 0,0
12.10.2019 09:00:00 14,7 11,6 14,4 22 12 32 18 SW 1007,2 50 0,0
12.10.2019 08:00:00 14,1 12,2 13,9 7 4 36 19 WSW 1006,6 45 0,0
12.10.2019 07:00:00 15,6 11,7 15,1 14 8 36 19 SSW 1006,4 50 0,0
12.10.2019 06:00:00 16,2 11,8 15,7 22 12 40 21 SSW 1006,1 49 0,0
12.10.2019 05:00:00 16,2 11,8 15,5 25 14 43 23 SW 1006,1 50 0,0
12.10.2019 04:00:00 16,4 11,8 15,6 25 14 43 23 SSW 1006,2 50 0,0
12.10.2019 03:00:00 16,3 11,9 15,5 25 14 47 25 SSW 1006,5 50 0,0
12.10.2019 02:00:00 16,4 11,8 15,8 25 14 40 21 SSW 1006,6 50 0,0
12.10.2019 01:00:00 16,3 11,9 15,8 25 14 47 25 SSW 1006,9 50 0,0
12.10.2019 00:00:00 16,0 12,0 15,4 25 14 50 27 SSW 1007,3 49 0,0
11.10.2019 23:00:00 15,8 11,9 15,2 29 16 50 27 SSW 1007,2 48 0,0

tt = temperature
td = dewpoint
tt 5cm = temperature 5cm
ff = wind speed
fx = gusts
dd = wind direction
ppp = reduced air pressure
vv = visibility
rr = precipitation

Next stations